"Pseudo-MPEC" for C0GWC65

Created 2023 Mar 22 16:22:05 UT using Find_Orb

Click here for an explanation of pseudo-MPECs

 
 Astrometry: 
     C0GWC65* C2023 03 18Wc9;yF^xxav[.+SEZp@=J3LZiTKF^mXG`M,1x_rN@ZZsZniPhaTgV00
     C0GWC65  C2023 03 184EA:FYa$ZHQAstrometryZ.b2G5agou:Oi*YWE3Y2Y.p%g1)H3Z\V00
     C0GWC65  C2023 03 18BvIi101[_K0N/D_.1sAgRO]1pI:r\NUXJ$\h3='8'U%n07gQ$sZ*V00
     C0GWC65  C2023 03 18QexI!LXZw6\3XI*_a1nc7ct(*%`$`bkAa:wgredacted;MWdcmQvV00
     C0GWC65 mC2023 03 18[[WGPA^mo@wtU4)r%$Yt!F!2e%p:uRvSyLN7?wWpK]L`@D?clickV00
     C0GWC65 mC2023 03 18yW9W:3herevYlmMByIuRO#CHsK7Ee2C+1Tx1emxbLE/Sgb#:,?]/V00
     C0GWC65 mC2023 03 18?7(D('0:$;KX97wfor,i_24Hf!0C=$)6;8U,@5!d)%%/7rF5%5NkV00
     C0GWC65 mC2023 03 18$Q1Y;.w@8g5*Cv%wean,@#w8#2qm;cqlNPexplanation-]''Oo=V00

Station data:
(V00) Kitt Peak-Bok  (N31.963125 W111.600190)  US/Arizona.  Observers T. A.
   Pruyne, B. M. Africano, E. J. Christensen, G. A. Farneth, D. C. Fuls, A.
   R. Gibbs, A. D. Grauer, H. Gröller, J. A. Johnson, R. A. Kowalski, S. M.
   Larson, G. J. Leonard, D. Rankin, R. L. Seaman, F. C. Shelly, K. W.
   Wierzchoś. 2.25-m reflector + CCD.

Orbital elements:  C0GWC65
   Perihelion 2023 Aug 1.65173 +/- 93.2 TT = 15:38:29 (JD 2460158.15173)
Epoch 2023 Mar 18.0 TT = JDT 2460021.5   Earth MOID: 0.0037   Ve: 0.0937
M 210.35920878 +/- 90               (J2000 ecliptic)             AutoNEOCP
n   1.09505227 +/- 0.244            Peri.  318.27728 +/- 28
a   0.93220797 +/- 0.139            Node    14.49223 +/- 60
e   0.1205620 +/- 0.137             Incl.    2.64435 +/- 3.8
P   0.90/328.75d           H 28.94  G  0.15   U 11.8  SR
q 0.81981908 +/- 0.107    Q 1.04459687 +/- 0.413
From 8 observations 2023 Mar. 18 (1.9 hr); mean residual 0".23
Residuals in arcseconds: 
230318 V00  .08-  .20-    230318 V00  .20-  .20+    230318 V00  .07+  .13+    
230318 V00  .38+  .02-    230318 V00  .10+  .03+    230318 V00  .29-  .53-    
230318 V00  .14-  .05+    230318 V00  .16+  .34+    

Ephemerides (geocentric):
Date (UTC) HH   RA             Dec           delta  r     elong  mag " sig PA
---- --------  ------------   ------------  ------ ------ -----  --- --------
2023 03 22 16  11 59 28.760   +20 53 00.91  .03358 1.0277 158.5 22.7  42d 166
2023 03 22 17  11 59 02.110   +20 54 08.37  .03354 1.0276 158.4 22.7  42d 166
2023 03 22 18  11 58 35.377   +20 55 15.65  .03349 1.0276 158.4 22.7  42d 166
2023 03 22 19  11 58 08.561   +20 56 22.76  .03344 1.0276 158.4 22.7  42d 166
2023 03 22 20  11 57 41.662   +20 57 29.68  .03339 1.0275 158.3 22.7  42d 166
2023 03 22 21  11 57 14.681   +20 58 36.42  .03334 1.0275 158.3 22.7  42d 166
2023 03 22 22  11 56 47.616   +20 59 42.97  .03330 1.0274 158.2 22.7  42d 166
2023 03 22 23  11 56 20.469   +21 00 49.33  .03325 1.0274 158.2 22.7  42d 166
2023 03 23 00  11 55 53.239   +21 01 55.50  .03320 1.0273 158.1 22.7  42d 166
2023 03 23 01  11 55 25.926   +21 03 01.47  .03315 1.0273 158.1 22.7  42d 166
2023 03 23 02  11 54 58.529   +21 04 07.25  .03311 1.0273 158.0 22.7  42d 166
2023 03 23 03  11 54 31.050   +21 05 12.82  .03306 1.0272 157.9 22.7  42d 166
2023 03 23 04  11 54 03.487   +21 06 18.19  .03301 1.0272 157.9 22.7  42d 166
2023 03 23 05  11 53 35.841   +21 07 23.35  .03297 1.0271 157.8 22.7  42d 166
2023 03 23 06  11 53 08.112   +21 08 28.29  .03292 1.0271 157.8 22.7  42d 166
2023 03 23 07  11 52 40.300   +21 09 33.03  .03287 1.0270 157.7 22.7  42d 167
2023 03 23 08  11 52 12.404   +21 10 37.55  .03283 1.0270 157.7 22.7  42d 167
2023 03 23 09  11 51 44.425   +21 11 41.85  .03278 1.0270 157.6 22.7  42d 167
2023 03 23 10  11 51 16.363   +21 12 45.92  .03274 1.0269 157.5 22.7  42d 167
2023 03 23 11  11 50 48.217   +21 13 49.77  .03269 1.0269 157.5 22.7  42d 167
2023 03 23 12  11 50 19.988   +21 14 53.40  .03264 1.0268 157.4 22.7  42d 167
2023 03 23 13  11 49 51.675   +21 15 56.79  .03260 1.0268 157.4 22.7  42d 167
2023 03 23 14  11 49 23.279   +21 16 59.94  .03255 1.0267 157.3 22.7  43d 167
2023 03 23 15  11 48 54.799   +21 18 02.86  .03251 1.0267 157.2 22.7  43d 167
2023 03 23 16  11 48 26.236   +21 19 05.54  .03246 1.0266 157.2 22.7  43d 167
2023 03 23 17  11 47 57.590   +21 20 07.97  .03242 1.0266 157.1 22.7  43d 167
2023 03 23 18  11 47 28.860   +21 21 10.16  .03237 1.0266 157.0 22.7  43d 167
2023 03 23 19  11 47 00.046   +21 22 12.10  .03233 1.0265 157.0 22.7  43d 167
2023 03 23 20  11 46 31.149   +21 23 13.78  .03228 1.0265 156.9 22.7  43d 167
2023 03 23 21  11 46 02.169   +21 24 15.20  .03224 1.0264 156.8 22.7  44d 167
2023 03 23 22  11 45 33.105   +21 25 16.37  .03220 1.0264 156.7 22.7  44d 167
2023 03 23 23  11 45 03.957   +21 26 17.27  .03215 1.0263 156.7 22.7  44d 167
2023 03 24 00  11 44 34.726   +21 27 17.91  .03211 1.0263 156.6 22.7  44d 167
2023 03 24 01  11 44 05.412   +21 28 18.28  .03206 1.0262 156.5 22.7  44d 167
2023 03 24 02  11 43 36.014   +21 29 18.38  .03202 1.0262 156.4 22.7  44d 167
2023 03 24 03  11 43 06.533   +21 30 18.20  .03198 1.0262 156.4 22.7  45d 167
2023 03 24 04  11 42 36.968   +21 31 17.74  .03193 1.0261 156.3 22.7  45d 167
2023 03 24 05  11 42 07.320   +21 32 17.00  .03189 1.0261 156.2 22.7  45d 167
2023 03 24 06  11 41 37.589   +21 33 15.97  .03185 1.0260 156.1 22.7  45d 167
2023 03 24 07  11 41 07.774   +21 34 14.66  .03181 1.0260 156.1 22.7  45d 167
2023 03 24 08  11 40 37.876   +21 35 13.05  .03176 1.0259 156.0 22.7  46d 167
2023 03 24 09  11 40 07.895   +21 36 11.15  .03172 1.0259 155.9 22.7  46d 167
2023 03 24 10  11 39 37.831   +21 37 08.95  .03168 1.0258 155.8 22.7  46d 167
2023 03 24 11  11 39 07.683   +21 38 06.45  .03164 1.0258 155.7 22.7  46d 167
2023 03 24 12  11 38 37.453   +21 39 03.64  .03160 1.0258 155.6 22.7  46d 167
2023 03 24 13  11 38 07.139   +21 40 00.52  .03155 1.0257 155.6 22.7  46d 167
2023 03 24 14  11 37 36.743   +21 40 57.10  .03151 1.0257 155.5 22.7  46d 167
2023 03 24 15  11 37 06.263   +21 41 53.35  .03147 1.0256 155.4 22.7  47d 167